[Date Prev][Date Next][Thread Prev][Thread Next] - [Date Index][Thread Index][Author Index]
2 Line ISS Keps 11-1
- Subject: [sarex] 2 Line ISS Keps 11-1
- From: "Dave Larsen PhD" <doc@xxxxxxxxxxx>
- Date: Tue, 1 Nov 2005 04:16:54 -0800
ISS
1 25544U 98067A 05305.37247692 .00014881 00000-0 10458-3 0 6601
2 25544 051.6433 277.8724 0002009 096.9194 017.4205 15.74406756397272
----
Via the sarex mailing list at AMSAT.ORG courtesy of AMSAT-NA.
To unsubscribe, send "unsubscribe sarex" to Majordomo@amsat.org
AMSAT Home